Regional Weather Roundup
Issued by NWS

Home | Current Version | Previous Version | Text Only | Print | Product List | Glossary Off
Versions: 1 2 3 4 5 6 7 8 9 10 11 12 13 14 15 16 17 18 19 20 21 22 23 24 25 26 27 28 29 30 31 32 33 34 35 36 37 38 39 40 41 42 43 44 45 46 47 48 49 50

000
ASUS45 KBOU 290310
RWRCO

WEATHER ROUNDUP FOR COLORADO
NATIONAL WEATHER SERVICE PUEBLO CO
900 PM MDT TUE JUL 28 2015

NOTE: "FAIR" INDICATES FEW OR NO CLOUDS BELOW 12000 FEET WITH NO
SIGNIFICANT WEATHER AND/OR OBSTRUCTIONS TO VISIBILITY.

COZ001>005-013-030-031-290400-
...NORTHWEST COLORADO...

CITY           SKY/WX    TMP DP  RH WIND       PRES   REMARKS
CRAIG          CLEAR     67  31  26 CALM      30.25R
HAYDEN         CLEAR     66  28  24 E7        30.27R
MEEKER         CLEAR     64  33  31 NE6       30.25R
MOUNT WERNER   NOT AVBL
STEAMBOAT SPGS FAIR      62  38  41 CALM      30.29S
WALDEN         FAIR      59  23  25 CALM      30.40R
$$

COZ006>008-011-290400-
...WEST CENTRAL VALLEYS...

CITY           SKY/WX    TMP DP  RH WIND       PRES   REMARKS
GRAND JUNCTION PTCLDY    77  25  14 NW8       30.08R
MONTROSE       PTCLDY    75  38  26 W6        30.17R
EAGLE          PTCLDY    73  34  23 SW3       30.25R
RIFLE          PTCLDY    75  30  19 W5        30.16R
DELTA          NOT AVBL
NUCLA          FAIR      73  23  15 NW6       30.20R
$$

COZ017>023-064>068-290400-
...SOUTHWEST COLORADO...

CITY           SKY/WX    TMP DP  RH WIND       PRES   REMARKS
DURANGO        PTCLDY    76  26  15 W9        30.19R
CORTEZ         CLEAR     70  35  27 SW7       30.16R
PAGOSA SPRINGS FAIR      66  39  37 CALM      30.28R
TELLURIDE      PTCLDY    66  30  26 CALM      30.44R
WOLF CREEK PAS NOT AVBL
$$

COZ009-010-012-014-032>034-037-058>063-290400-
...CENTRAL COLORADO...

CITY           SKY/WX    TMP DP  RH WIND       PRES   REMARKS
ASPEN          PTCLDY    60  41  49 S8        30.33R
BUENA VISTA    FAIR      70  35  28 SE10      30.33R
COPPER MTN     PTCLDY    55  27  33 W15       30.67S
BERTHOUD PASS  FAIR      43  32  65 E24G39    30.71S
COTTONWOOD PAS CLOUDY    68  12  11 CALM      30.49R
GUNNISON       PTCLDY    66  32  28 N6        30.33R
KREMMLING      CLEAR     64  30  27 CALM      30.34R
LEADVILLE      PTCLDY    55  32  41 N6        30.48R
MONARCH PASS   MOCLDY    52  36  54 E15       30.74S
SALIDA         FAIR      73  36  25 SE16G25   30.35R
NIWOT RIDGE    NOT AVBL
SUNLIGHT       PTCLDY    54  27  35 CALM      30.59R
WILKERSON PASS PTCLDY    52  32  46 S12G23    30.63R
$$

COZ069>075-290400-
...SAN LUIS VALLEY/SANGRE DE CRISTO MOUNTAINS...

CITY           SKY/WX    TMP DP  RH WIND       PRES   REMARKS
ALAMOSA        MOCLDY    71  44  37 E14G22    30.26R
LA VETA PASS   LGT RAIN  55  41  58 SE7       30.51R
SAGUACHE       NOT AVBL
$$

COZ035-036-038>040-290400-
...NORTHERN COLORADO FRONT RANGE...

CITY           SKY/WX    TMP DP  RH WIND       PRES   REMARKS
DENVER INTL AP MOCLDY    73  35  25 E15       30.22R
DMNS CITY PARK NOT AVBL
AURORA         MOCLDY    72  41  32 E12       30.25R
FRONT RANGE AP MOCLDY    70  36  28 E10       30.24R
ERIE MUNI ARPT FAIR      74  34  22 E9G16     30.22R
BOULDER MUN AP FAIR      72  43  35 CALM      30.24R
CENTENNIAL     MOCLDY    73  43  33 SE10      30.25R
BROOMFIELD     MOCLDY    75  36  23 NE9       30.24R
LOVELAND       PTCLDY    75  37  25 E12       30.21R
LONGMONT       FAIR      75  44  33 N3        30.24R
$$

COZ041-046-047-076>085-087-088-290400-
...PIKES PEAK/PALMER DIVIDE AND SOUTHERN FOOTHILLS...

CITY           SKY/WX    TMP DP  RH WIND       PRES   REMARKS
COLO. SPRINGS  PTCLDY    70  41  34 E13       30.27R
A. F. ACADEMY  PTCLDY    70  40  33 SE12      30.29R
ELLICOTT       FAIR     N/A N/A N/A E16       30.26R
FALCON         FAIR      62  42  48 E7        30.33R
FORT CARSON    PTCLDY    72  40  31 SE8       30.24R
LIMON          CLEAR     64  46  52 E9        30.25R
MONUMENT HILL  MOCLDY    63  41  45 E13       30.33R
TRINIDAD       CLOUDY    72  46  39 NE3       30.22R
$$

COZ042>045-048>051-090-091-290400-
...NORTHEAST COLORADO...

CITY           SKY/WX    TMP DP  RH WIND       PRES   REMARKS
GREELEY ARPT   CLOUDY    73  37  27 E8        30.21R
AKRON          CLEAR     63  41  44 E8        30.21R
BURLINGTON     CLEAR     67  50  54 NE6       30.18R
WRAY           FAIR      69  48  46 CALM      30.16R
STERLING       NOT AVBL
HOLYOKE        FAIR      64  50  59 CALM      30.16R
FORT MORGAN    FAIR      66  38  35 E7        30.20R
$$

COZ086-089-092>099-290400-
...SOUTHEAST COLORADO...

CITY           SKY/WX    TMP DP  RH WIND       PRES   REMARKS
PUEBLO         PTCLDY    82  40  22 E21G29    30.14R
LA JUNTA       MOCLDY    78  46  32 E13       30.13R
LAMAR          CLOUDY    73  52  47 E7        30.11R
SPRINGFIELD      N/A     71  56  58 NE6       30.14S
$$



USA.gov is the U.S. government's official web portal to all federal, state and local government web resources and services.